This is the latest recevied weather packets stored in our database for station/object KC3BHK-2. If no packets are shown the sender has not sent any weather packets the latest 10 day(s).
| Time | Temp. | Humidity | Pressure | Rain* | Wind** | Luminosity | Snow |
|---|---|---|---|---|---|---|---|
| 1778090963 | 18.89° C | - | - | 0 mm | 2.68 m/s, 198° | - | - |
| 1778090657 | 19.44° C | - | - | 0 mm | 2.24 m/s, 205° | - | - |
| 1778090352 | 18.89° C | - | - | 0 mm | 2.68 m/s, 173° | - | - |
| 1778090044 | 18.89° C | - | - | 0 mm | 2.68 m/s, 158° | - | - |
| 1778089739 | 18.89° C | - | - | 0 mm | 3.13 m/s, 188° | - | - |
| 1778089434 | 18.89° C | - | - | 0 mm | 1.79 m/s, 172° | - | - |
| 1778089129 | 18.33° C | - | - | 0 mm | 2.24 m/s, 195° | - | - |
| 1778088824 | 18.89° C | - | - | 0 mm | 2.68 m/s, 187° | - | - |
| 1778088520 | 18.89° C | - | - | 0 mm | 2.68 m/s, 179° | - | - |
| 1778088212 | 18.89° C | - | - | 0 mm | 2.68 m/s, 172° | - | - |
| 1778087907 | 20° C | - | - | 0 mm | 3.13 m/s, 158° | - | - |
| 1778087603 | 20° C | - | - | 0 mm | 3.58 m/s, 148° | - | - |
| 1778087298 | 19.44° C | - | - | 0 mm | 4.47 m/s, 169° | - | - |
| 1778086994 | 18.89° C | - | - | 0 mm | 3.58 m/s, 191° | - | - |
| 1778086689 | 19.44° C | - | - | 0 mm | 3.13 m/s, 173° | - | - |
| 1778086381 | 19.44° C | - | - | 0 mm | 4.02 m/s, 174° | - | - |
| 1778086076 | 19.44° C | - | - | 0 mm | 4.02 m/s, 174° | - | - |
| 1778085772 | 18.89° C | - | - | 0 mm | 5.81 m/s, 163° | - | - |
| 1778085467 | 19.44° C | - | - | 0 mm | 2.68 m/s, 197° | - | - |
| 1778085162 | 18.33° C | - | - | 0 mm | 3.58 m/s, 170° | - | - |
| 1778084857 | 18.33° C | - | - | 0 mm | 1.79 m/s, 145° | - | - |
| 1778084550 | 18.33° C | - | - | 0 mm | 2.24 m/s, 132° | - | - |
| 1778083940 | 17.22° C | - | - | 0 mm | 4.02 m/s, 163° | - | - |
| 1778083635 | 17.78° C | - | - | 0 mm | 3.58 m/s, 186° | - | - |
| 1778083330 | 16.67° C | - | - | 0 mm | 2.68 m/s, 180° | - | - |
* Rain latest hour (hover to see other rain measurements)
** Current wind speed in m/s (hover to see current wind gust speed)